User: anonymous   Login
Location: Unspecified
(0.0000°N, 0.0000°E)
Time: 19:32:35
(UTC+00:00)
Language:

DICE 2 - Orbit

View from above orbital plane
View from above orbital plane
View from above satellite
View from above satellite

Ground track
Ground track

The orbit data is extracted from the following two-line orbital elements,

1 37852U 11061C   18351.06141767  .00001627  00000-0  90404-4 0  9991
2 37852 101.7283 150.7557 0166118 255.5370 102.7359 15.05862567389269
Epoch (UTC): 17 December 2018 01:28:26
Eccentricity: 0.0166118
inclination: 101.7283°
perigee height: 434 km
apogee height: 664 km
right ascension of ascending node: 150.7557°
argument of perigee: 255.5370°
revolutions per day: 15.05862567
mean anomaly at epoch: 102.7359°
orbit number at epoch: 38926

The dashed part of the orbit path shows where the satellite is in the earth's shadow,  

DLR